Simultaneous Nadir Overpasses (SNOs) Predictions

Prediction of SNOs between METOP-B and TERRA Satellite Orbit:

Table of predicted SNOs for the next 14.0 days since TLE Epoch: 1/7/2017
Index Date (METOP-B) Time (METOP-B) Lat,Lon (METOP-B) SZA (METOP-B ) Date (TERRA) Time (TERRA) Lat,Lon (TERRA) SZA (TERRA ) Distance(km) Time Diff (sec)
1 01/08/2017 22:37:53 -81.30, 67.59 74.17 01/08/2017 22:38:46 -81.30, 67.51 74.15 1.52 53
2 01/08/2017 23:28:32 81.31,-124.58 105.89 01/08/2017 23:28:12 81.31,-124.77 105.86 3.19 20
3 01/11/2017 18:12:13 -81.30, 134.01 74.62 01/11/2017 18:13:00 -81.30, 133.82 74.62 3.28 47
4 01/11/2017 19:02:53 81.30, -58.57 105.39 01/11/2017 19:02:26 81.30, -58.48 105.38 1.51 27
5 01/14/2017 13:46:33 -81.30,-159.71 75.14 01/14/2017 13:47:13 -81.31,-159.57 75.11 2.53 40
6 01/14/2017 14:37:12 81.30, 8.09 104.91 01/14/2017 14:36:39 81.31, 8.12 104.90 0.73 33
7 01/17/2017 09:20:52 -81.29, -93.56 75.73 01/17/2017 09:21:26 -81.29, -93.41 75.70 2.65 34
8 01/17/2017 10:11:31 81.30, 74.23 104.32 01/17/2017 10:10:52 81.29, 74.27 104.30 1.02 39
9 01/20/2017 04:55:10 -81.30, -26.77 76.30 01/20/2017 04:55:39 -81.29, -26.93 76.31 2.78 29




NCC Satellite Simultaneous Nadir Overpasses (SNOs) Prediction Service
